| time (UTC) | temp C | wind direction | speed KPH | gust KPH | rain 1hr cm | rain 24hr cm | rain mn cm | humidity % | barometer mb |
| 20260906165405 | 24 | 97 | 8.0 | 16.1 | 0.00 | 0.00 | 0.00 | 71 | 1020.8 |
| 20260906165135 | 24 | 105 | 4.8 | 12.9 | 0.00 | 0.00 | 0.00 | 70 | 1020.9 |
| 20260906164404 | 25 | 90 | 3.2 | 12.9 | 0.00 | 0.00 | 0.00 | 68 | 1020.9 |
| 20260906163903 | 25 | 154 | 3.2 | 14.5 | 0.00 | 0.00 | 0.00 | 71 | 1020.9 |
| 20260906163403 | 24 | 184 | 8.0 | 16.1 | 0.00 | 0.00 | 0.00 | 70 | 1020.9 |
| 20260906162904 | 24 | 87 | 9.7 | 16.1 | 0.00 | 0.00 | 0.00 | 70 | 1020.9 |
| 20260906162400 | 24 | 128 | 6.4 | 16.1 | 0.00 | 0.00 | 0.00 | 72 | 1020.9 |
| 20260906161855 | 23 | 146 | 6.4 | 14.5 | 0.00 | 0.00 | 0.00 | 71 | 1020.9 |
| 20260906161356 | 23 | 96 | 4.8 | 14.5 | 0.00 | 0.00 | 0.00 | 73 | 1020.9 |
| 20260906160855 | 23 | 131 | 6.4 | 14.5 | 0.00 | 0.00 | 0.00 | 75 | 1020.9 |
| 20260906160356 | 23 | 98 | 8.0 | 16.1 | 0.00 | 0.00 | 0.00 | 74 | 1020.9 |
| 20260906155856 | 23 | 99 | 6.4 | 16.1 | 0.00 | 0.00 | 0.00 | 74 | 1020.9 |
| 20260906155353 | 23 | 88 | 4.8 | 14.5 | 0.00 | 0.00 | 0.00 | 74 | 1020.9 |
| 20260906154850 | 23 | 76 | 4.8 | 14.5 | 0.00 | 0.00 | 0.00 | 74 | 1020.9 |
| 20260906154351 | 23 | 98 | 3.2 | 9.7 | 0.00 | 0.00 | 0.00 | 75 | 1020.9 |
| 20260906153853 | 23 | 161 | 6.4 | 19.3 | 0.00 | 0.00 | 0.00 | 76 | 1021.0 |
| 20260906153622 | 23 | 143 | 6.4 | 19.3 | 0.00 | 0.00 | 0.00 | 78 | 1021.1 |
| 20260906152853 | 23 | 161 | 4.8 | 17.7 | 0.00 | 0.00 | 0.00 | 77 | 1021.0 |
| 20260906152352 | 22 | 107 | 6.4 | 12.9 | 0.00 | 0.00 | 0.00 | 80 | 1021.0 |
| 20260906151852 | 22 | 103 | 8.0 | 12.9 | 0.00 | 0.00 | 0.00 | 78 | 1021.1 |
| 20260906151347 | 22 | 92 | 6.4 | 12.9 | 0.00 | 0.00 | 0.00 | 78 | 1021.1 |
| 20260906151117 | 23 | 95 | 4.8 | 12.9 | 0.00 | 0.00 | 0.00 | 79 | 1021.0 |
| 20260906150349 | 22 | 113 | 4.8 | 11.3 | 0.00 | 0.00 | 0.00 | 80 | 1021.0 |
| 20260906145847 | 22 | 134 | 4.8 | 14.5 | 0.00 | 0.00 | 0.00 | 79 | 1020.9 |
| 20260906145344 | 22 | 107 | 4.8 | 14.5 | 0.00 | 0.00 | 0.00 | 79 | 1020.8 |
| 20260906144845 | 22 | 131 | 6.4 | 12.9 | 0.00 | 0.00 | 0.00 | 81 | 1020.7 |
| 20260906144346 | 22 | 92 | 6.4 | 12.9 | 0.00 | 0.00 | 0.00 | 81 | 1020.7 |
| 20260906143839 | 22 | 115 | 6.4 | 12.9 | 0.00 | 0.00 | 0.00 | 81 | 1020.8 |
| 20260906143335 | 22 | 92 | 6.4 | 12.9 | 0.00 | 0.00 | 0.00 | 81 | 1020.8 |
| 20260906142837 | 22 | 100 | 6.4 | 12.9 | 0.00 | 0.00 | 0.00 | 82 | 1020.8 |
| 20260906142607 | 21 | 84 | 8.0 | 12.9 | 0.00 | 0.00 | 0.00 | 83 | 1020.8 |
| 20260906142106 | 22 | 89 | 6.4 | 11.3 | 0.00 | 0.00 | 0.00 | 85 | 1020.8 |
| 20260906141335 | 21 | 86 | 3.2 | 6.4 | 0.00 | 0.00 | 0.00 | 86 | 1020.8 |
| 20260906140836 | 21 | 107 | 3.2 | 6.4 | 0.00 | 0.00 | 0.00 | 85 | 1020.9 |
| 20260906140331 | 21 | 92 | 3.2 | 6.4 | 0.00 | 0.00 | 0.00 | 86 | 1021.0 |
| 20260906135835 | 21 | 98 | 1.6 | 4.8 | 0.00 | 0.00 | 0.00 | 86 | 1021.1 |
| 20260906135831 | 21 | 101 | 3.2 | 4.8 | 0.00 | 0.00 | 0.00 | 86 | 1021.0 |
| 20260906135101 | 21 | 87 | 1.6 | 6.4 | 0.00 | 0.00 | 0.00 | 87 | 1021.0 |
| 20260906134332 | 21 | 87 | 0.0 | 6.4 | 0.00 | 0.00 | 0.00 | 87 | 1021.0 |
| 20260906133832 | 20 | 81 | 1.6 | 4.8 | 0.00 | 0.00 | 0.00 | 89 | 1020.9 |
| 20260906133327 | 20 | 82 | 1.6 | 4.8 | 0.00 | 0.00 | 0.00 | 89 | 1020.8 |
| 20260906132829 | 20 | 82 | 1.6 | 4.8 | 0.00 | 0.00 | 0.00 | 91 | 1020.8 |
| 20260906132327 | 20 | 79 | 1.6 | 4.8 | 0.00 | 0.00 | 0.00 | 93 | 1020.8 |
| 20260906131827 | 19 | 79 | 0.0 | 4.8 | 0.00 | 0.00 | 0.00 | 95 | 1020.8 |
| 20260906131328 | 18 | 78 | 1.6 | 4.8 | 0.00 | 0.00 | 0.00 | 95 | 1020.8 |
| 20260906130828 | 18 | 79 | 1.6 | 6.4 | 0.00 | 0.00 | 0.00 | 97 | 1020.6 |
| 20260906130323 | 18 | 84 | 1.6 | 6.4 | 0.00 | 0.00 | 0.00 | 97 | 1020.6 |
| 20260906125825 | 18 | 84 | 1.6 | 6.4 | 0.00 | 0.00 | 0.00 | 97 | 1020.6 |
| 20260906125324 | 17 | 71 | 1.6 | 4.8 | 0.00 | 0.00 | 0.00 | 97 | 1020.6 |
| 20260906124822 | 17 | 32 | 3.2 | 6.4 | 0.00 | 0.00 | 0.00 | 97 | 1020.7 |
| 20260906124553 | 17 | 44 | 3.2 | 6.4 | 0.00 | 0.00 | 0.00 | 97 | 1020.6 |
| 20260906124054 | 16 | 20 | 3.2 | 6.4 | 0.00 | 0.00 | 0.00 | 97 | 1020.5 |
| 20260906123319 | 16 | 18 | 3.2 | 8.0 | 0.00 | 0.00 | 0.00 | 97 | 1020.5 |
| 20260906122819 | 16 | 28 | 3.2 | 8.0 | 0.00 | 0.00 | 0.00 | 97 | 1020.4 |
| 20260906122320 | 16 | 24 | 1.6 | 8.0 | 0.00 | 0.00 | 0.00 | 97 | 1020.2 |
| 20260906121819 | 16 | 11 | 1.6 | 4.8 | 0.00 | 0.00 | 0.00 | 97 | 1020.3 |
| 20260906121318 | 16 | 12 | 1.6 | 4.8 | 0.00 | 0.00 | 0.00 | 97 | 1020.3 |
| 20260906120820 | 15 | 338 | 1.6 | 4.8 | 0.00 | 0.00 | 0.00 | 96 | 1020.2 |
| 20260906120546 | 15 | 340 | 1.6 | 3.2 | 0.00 | 0.00 | 0.00 | 96 | 1020.2 |
| 20260906120044 | 15 | 340 | 1.6 | 3.2 | 0.00 | 0.00 | 0.00 | 96 | 1020.1 |
| 20260906115313 | 15 | 340 | 3.2 | 4.8 | 0.00 | 0.00 | 0.00 | 96 | 1020.1 |
| 20260906114808 | 15 | 340 | 1.6 | 4.8 | 0.00 | 0.00 | 0.00 | 96 | 1020.0 |
| 20260906114310 | 15 | 331 | 1.6 | 3.2 | 0.00 | 0.00 | 0.00 | 96 | 1019.6 |
| 20260906114306 | 15 | 337 | 1.6 | 4.8 | 0.00 | 0.00 | 0.00 | 96 | 1019.9 |
| 20260906113536 | 15 | 335 | 0.0 | 4.8 | 0.00 | 0.00 | 0.00 | 96 | 1019.5 |
| 20260906112805 | 15 | 350 | 1.6 | 4.8 | 0.00 | 0.00 | 0.00 | 96 | 1019.5 |
| 20260906112306 | 15 | 355 | 1.6 | 3.2 | 0.00 | 0.00 | 0.00 | 96 | 1019.4 |
| 20260906111800 | 15 | 24 | 1.6 | 3.2 | 0.00 | 0.00 | 0.00 | 96 | 1019.4 |
| 20260906111529 | 15 | 30 | 1.6 | 4.8 | 0.00 | 0.00 | 0.00 | 96 | 1019.3 |
| 20260906110759 | 15 | 33 | 1.6 | 4.8 | 0.00 | 0.00 | 0.00 | 96 | 1019.3 |
| 20260906110529 | 15 | 34 | 1.6 | 6.4 | 0.00 | 0.00 | 0.00 | 96 | 1019.2 |
| 20260906105756 | 15 | 33 | 1.6 | 6.4 | 0.00 | 0.03 | 0.00 | 96 | 1019.3 |
| 20260906105257 | 15 | 11 | 1.6 | 4.8 | 0.00 | 0.03 | 0.00 | 95 | 1019.2 |
| 20260906105023 | 15 | 11 | 3.2 | 6.4 | 0.00 | 0.03 | 0.00 | 95 | 1019.3 |
| 20260906104522 | 15 | 12 | 1.6 | 6.4 | 0.00 | 0.03 | 0.00 | 95 | 1019.3 |
| 20260906103751 | 15 | 37 | 3.2 | 6.4 | 0.00 | 0.03 | 0.00 | 95 | 1019.2 |
| 20260906103250 | 15 | 37 | 3.2 | 8.0 | 0.00 | 0.03 | 0.00 | 96 | 1019.2 |
| 20260906103022 | 15 | 34 | 3.2 | 8.0 | 0.00 | 0.03 | 0.00 | 95 | 1019.2 |
| 20260906102251 | 15 | 13 | 3.2 | 6.4 | 0.00 | 0.03 | 0.00 | 95 | 1019.2 |
| 20260906101747 | 15 | 15 | 1.6 | 6.4 | 0.00 | 0.03 | 0.00 | 95 | 1019.4 |
| 20260906101246 | 15 | 17 | 1.6 | 4.8 | 0.00 | 0.03 | 0.00 | 95 | 1019.3 |
| 20260906100746 | 15 | 17 | 1.6 | 4.8 | 0.00 | 0.03 | 0.00 | 95 | 1019.4 |
| 20260906100244 | 15 | 19 | 3.2 | 3.2 | 0.00 | 0.03 | 0.00 | 95 | 1019.4 |
| 20260906095741 | 15 | 19 | 3.2 | 4.8 | 0.00 | 0.03 | 0.00 | 95 | 1019.4 |
| 20260906095241 | 15 | 20 | 3.2 | 4.8 | 0.00 | 0.03 | 0.00 | 95 | 1019.3 |
| 20260906094736 | 15 | 21 | 1.6 | 4.8 | 0.00 | 0.03 | 0.00 | 95 | 1019.2 |
| 20260906094236 | 15 | 21 | 1.6 | 4.8 | 0.00 | 0.03 | 0.00 | 95 | 1019.2 |
| 20260906093734 | 15 | 21 | 0.0 | 4.8 | 0.00 | 0.03 | 0.00 | 95 | 1019.1 |
| 20260906093505 | 15 | 22 | 1.6 | 4.8 | 0.00 | 0.03 | 0.00 | 95 | 1019.1 |
| 20260906093345 | 15 | 22 | 3.2 | 8.0 | 0.00 | 0.03 | 0.00 | 95 | 1019.1 |
| 20260906092230 | 15 | 9 | 4.8 | 8.0 | 0.00 | 0.03 | 0.00 | 95 | 1019.1 |
| 20260906091727 | 15 | 11 | 3.2 | 6.4 | 0.00 | 0.03 | 0.00 | 94 | 1019.1 |
| 20260906091224 | 15 | 25 | 1.6 | 6.4 | 0.00 | 0.03 | 0.00 | 94 | 1019.1 |
| 20260906090957 | 15 | 31 | 0.0 | 4.8 | 0.00 | 0.03 | 0.00 | 94 | 1019.0 |
| 20260906090225 | 15 | 32 | 0.0 | 0.0 | 0.00 | 0.03 | 0.00 | 94 | 1018.9 |
| 20260906085722 | 15 | 11 | 0.0 | 0.0 | 0.00 | 0.03 | 0.00 | 94 | 1019.0 |
| 20260906085223 | 15 | 5 | 0.0 | 3.2 | 0.00 | 0.03 | 0.00 | 94 | 1019.0 |
| 20260906084721 | 15 | 5 | 1.6 | 3.2 | 0.00 | 0.03 | 0.00 | 94 | 1019.0 |
| 20260906084220 | 15 | 5 | 0.0 | 3.2 | 0.00 | 0.03 | 0.00 | 94 | 1019.0 |
| 20260906083721 | 15 | 5 | 0.0 | 0.0 | 0.00 | 0.03 | 0.00 | 94 | 1019.0 |
| 20260906083219 | 15 | 5 | 0.0 | 3.2 | 0.00 | 0.03 | 0.00 | 94 | 1019.0 |
| 20260906082716 | 15 | 5 | 0.0 | 3.2 | 0.00 | 0.03 | 0.00 | 94 | 1018.9 |
| 20260906082217 | 16 | 5 | 1.6 | 4.8 | 0.00 | 0.03 | 0.00 | 94 | 1018.9 |
| 20260906081714 | 16 | 5 | 1.6 | 4.8 | 0.00 | 0.03 | 0.00 | 94 | 1018.8 |
| 20260906081212 | 16 | 5 | 0.0 | 3.2 | 0.00 | 0.03 | 0.00 | 94 | 1018.8 |
| 20260906080714 | 16 | 5 | 0.0 | 3.2 | 0.00 | 0.03 | 0.00 | 94 | 1018.8 |
| 20260906080444 | 16 | 5 | 1.6 | 4.8 | 0.00 | 0.03 | 0.00 | 94 | 1018.8 |
| 20260906075710 | 16 | 9 | 3.2 | 4.8 | 0.00 | 0.03 | 0.00 | 94 | 1018.8 |
| 20260906075210 | 16 | 9 | 3.2 | 8.0 | 0.00 | 0.03 | 0.00 | 94 | 1018.9 |
| 20260906074940 | 16 | 9 | 3.2 | 8.0 | 0.00 | 0.03 | 0.00 | 94 | 1018.9 |
| 20260906074208 | 16 | 19 | 3.2 | 8.0 | 0.00 | 0.03 | 0.00 | 94 | 1019.0 |
| 20260906073711 | 16 | 340 | 4.8 | 6.4 | 0.00 | 0.03 | 0.00 | 94 | 1019.0 |
| 20260906073208 | 16 | 340 | 3.2 | 6.4 | 0.00 | 0.03 | 0.00 | 94 | 1019.1 |
| 20260906072704 | 16 | 342 | 3.2 | 4.8 | 0.00 | 0.03 | 0.00 | 94 | 1019.1 |
| 20260906072436 | 16 | 342 | 4.8 | 6.4 | 0.00 | 0.03 | 0.00 | 94 | 1019.0 |
| 20260906071929 | 16 | 344 | 3.2 | 6.4 | 0.00 | 0.03 | 0.00 | 94 | 1018.9 |
| 20260906071158 | 16 | 344 | 3.2 | 4.8 | 0.00 | 0.03 | 0.00 | 94 | 1018.9 |
| 20260906070930 | 16 | 355 | 4.8 | 6.4 | 0.00 | 0.03 | 0.00 | 94 | 1018.9 |
| 20260906070158 | 16 | 355 | 4.8 | 6.4 | 0.00 | 0.03 | 0.00 | 94 | 1018.8 |
| 20260906065930 | 16 | 0 | 4.8 | 6.4 | 0.00 | 0.03 | 0.00 | 94 | 1018.7 |
| 20260906065159 | 16 | 5 | 4.8 | 6.4 | 0.00 | 0.03 | 0.00 | 95 | 1018.7 |
| 20260906064653 | 16 | 5 | 4.8 | 6.4 | 0.00 | 0.03 | 0.00 | 95 | 1018.7 |
| 20260906064151 | 16 | 5 | 4.8 | 6.4 | 0.00 | 0.03 | 0.00 | 95 | 1018.7 |
| 20260906063649 | 16 | 21 | 3.2 | 6.4 | 0.00 | 0.03 | 0.00 | 94 | 1018.7 |
| 20260906063417 | 16 | 22 | 3.2 | 4.8 | 0.00 | 0.03 | 0.00 | 94 | 1018.6 |
| 20260906062647 | 16 | 22 | 1.6 | 4.8 | 0.00 | 0.03 | 0.00 | 94 | 1018.7 |
| 20260906062142 | 16 | 22 | 1.6 | 4.8 | 0.00 | 0.03 | 0.00 | 94 | 1018.6 |
| 20260906061914 | 16 | 22 | 1.6 | 3.2 | 0.00 | 0.03 | 0.00 | 94 | 1018.6 |
| 20260906061144 | 16 | 30 | 1.6 | 3.2 | 0.00 | 0.03 | 0.00 | 94 | 1018.6 |
| 20260906060642 | 16 | 30 | 1.6 | 3.2 | 0.00 | 0.03 | 0.00 | 94 | 1018.7 |
| 20260906060140 | 16 | 30 | 0.0 | 3.2 | 0.00 | 0.03 | 0.00 | 94 | 1018.7 |
| 20260906055642 | 16 | 30 | 1.6 | 3.2 | 0.00 | 0.03 | 0.00 | 94 | 1018.5 |
| 20260906055135 | 16 | 30 | 1.6 | 3.2 | 0.00 | 0.03 | 0.00 | 94 | 1018.5 |
| 20260906054633 | 16 | 30 | 3.2 | 3.2 | 0.00 | 0.03 | 0.00 | 93 | 1018.5 |
| 20260906054401 | 16 | 30 | 3.2 | 4.8 | 0.00 | 0.03 | 0.00 | 93 | 1018.5 |
| 20260906053628 | 16 | 30 | 3.2 | 4.8 | 0.00 | 0.03 | 0.00 | 93 | 1018.5 |
| 20260906053130 | 16 | 30 | 3.2 | 4.8 | 0.00 | 0.03 | 0.00 | 93 | 1018.4 |
| 20260906052622 | 16 | 30 | 1.6 | 4.8 | 0.00 | 0.03 | 0.00 | 93 | 1018.3 |
| 20260906052121 | 16 | 30 | 0.0 | 3.2 | 0.00 | 0.03 | 0.00 | 92 | 1018.2 |
| 20260906051618 | 16 | 30 | 0.0 | 0.0 | 0.00 | 0.03 | 0.00 | 93 | 1018.2 |
| 20260906051116 | 17 | 32 | 0.0 | 3.2 | 0.00 | 0.03 | 0.00 | 92 | 1018.0 |
| 20260906050617 | 17 | 32 | 0.0 | 3.2 | 0.00 | 0.03 | 0.00 | 93 | 1018.1 |
| 20260906050114 | 17 | 32 | 0.0 | 3.2 | 0.00 | 0.03 | 0.00 | 93 | 1018.1 |
| 20260906045614 | 17 | 32 | 0.0 | 3.2 | 0.00 | 0.03 | 0.03 | 93 | 1018.0 |
| 20260906045113 | 17 | 32 | 0.0 | 3.2 | 0.00 | 0.03 | 0.03 | 92 | 1018.0 |
| 20260906044610 | 17 | 32 | 0.0 | 1.6 | 0.00 | 0.03 | 0.03 | 92 | 1018.1 |
| 20260906044342 | 17 | 32 | 0.0 | 0.0 | 0.00 | 0.03 | 0.03 | 92 | 1018.1 |
| 20260906043609 | 17 | 34 | 0.0 | 0.0 | 0.00 | 0.03 | 0.03 | 92 | 1018.1 |
| 20260906043104 | 17 | 34 | 0.0 | 0.0 | 0.00 | 0.03 | 0.03 | 91 | 1018.1 |
| 20260906042602 | 17 | 34 | 0.0 | 0.0 | 0.00 | 0.03 | 0.03 | 91 | 1018.1 |
| 20260906042102 | 17 | 41 | 0.0 | 0.0 | 0.00 | 0.03 | 0.03 | 91 | 1018.1 |
| 20260906041603 | 17 | 41 | 0.0 | 0.0 | 0.00 | 0.03 | 0.03 | 91 | 1018.1 |
| 20260906041100 | 17 | 41 | 0.0 | 0.0 | 0.00 | 0.03 | 0.03 | 91 | 1017.9 |
| 20260906040602 | 17 | 41 | 0.0 | 0.0 | 0.00 | 0.03 | 0.03 | 90 | 1017.9 |
| 20260906040053 | 17 | 41 | 0.0 | 1.6 | 0.00 | 0.03 | 0.03 | 90 | 1017.9 |
| 20260906035553 | 17 | 41 | 0.0 | 1.6 | 0.00 | 0.03 | 0.03 | 90 | 1017.9 |
| 20260906035050 | 17 | 41 | 0.0 | 0.0 | 0.00 | 0.03 | 0.03 | 90 | 1017.9 |
| 20260906034548 | 17 | 49 | 0.0 | 0.0 | 0.00 | 0.03 | 0.03 | 90 | 1017.9 |
| 20260906034049 | 17 | 49 | 0.0 | 0.0 | 0.00 | 0.03 | 0.03 | 90 | 1017.8 |
| 20260906033544 | 17 | 50 | 0.0 | 0.0 | 0.00 | 0.03 | 0.03 | 90 | 1017.7 |
| 20260906033045 | 18 | 50 | 0.0 | 0.0 | 0.00 | 0.03 | 0.03 | 90 | 1017.8 |
| 20260906032542 | 18 | 50 | 0.0 | 1.6 | 0.00 | 0.03 | 0.03 | 89 | 1017.7 |
| 20260906032043 | 18 | 50 | 0.0 | 1.6 | 0.00 | 0.03 | 0.03 | 89 | 1017.7 |
| 20260906031539 | 18 | 54 | 0.0 | 0.0 | 0.00 | 0.03 | 0.03 | 89 | 1017.6 |
| 20260906031040 | 18 | 54 | 0.0 | 0.0 | 0.00 | 0.03 | 0.03 | 88 | 1017.6 |
| 20260906030539 | 18 | 54 | 0.0 | 0.0 | 0.00 | 0.03 | 0.03 | 88 | 1017.7 |
| 20260906030037 | 19 | 54 | 0.0 | 0.0 | 0.00 | 0.03 | 0.03 | 88 | 1017.6 |
| 20260906025539 | 19 | 54 | 0.0 | 0.0 | 0.00 | 0.03 | 0.03 | 87 | 1017.6 |
| 20260906025036 | 19 | 54 | 0.0 | 0.0 | 0.00 | 0.03 | 0.03 | 86 | 1017.6 |
| 20260906024534 | 19 | 54 | 0.0 | 0.0 | 0.00 | 0.03 | 0.03 | 86 | 1017.6 |
| 20260906024035 | 19 | 54 | 0.0 | 1.6 | 0.00 | 0.03 | 0.03 | 85 | 1017.7 |
| 20260906023534 | 19 | 54 | 0.0 | 3.2 | 0.00 | 0.03 | 0.03 | 84 | 1017.7 |
| 20260906023302 | 19 | 54 | 0.0 | 3.2 | 0.00 | 0.03 | 0.03 | 84 | 1017.7 |
| 20260906022532 | 19 | 54 | 0.0 | 3.2 | 0.00 | 0.03 | 0.03 | 84 | 1017.7 |
| 20260906022031 | 20 | 54 | 0.0 | 3.2 | 0.00 | 0.03 | 0.03 | 83 | 1017.7 |
| 20260906021802 | 20 | 54 | 1.6 | 4.8 | 0.00 | 0.03 | 0.03 | 83 | 1017.6 |
| 20260906021028 | 20 | 54 | 1.6 | 4.8 | 0.00 | 0.03 | 0.03 | 84 | 1017.6 |
| 20260906020531 | 20 | 53 | 1.6 | 3.2 | 0.00 | 0.03 | 0.03 | 84 | 1017.7 |
| 20260906020527 | 20 | 53 | 1.6 | 3.2 | 0.00 | 0.03 | 0.03 | 84 | 1017.7 |
| 20260906015526 | 20 | 53 | 1.6 | 3.2 | 0.00 | 0.03 | 0.03 | 84 | 1017.6 |
| 20260906015257 | 20 | 53 | 1.6 | 4.8 | 0.00 | 0.03 | 0.03 | 83 | 1017.5 |
| 20260906014527 | 20 | 53 | 1.6 | 4.8 | 0.00 | 0.03 | 0.03 | 83 | 1017.6 |
| 20260906014022 | 20 | 51 | 1.6 | 6.4 | 0.00 | 0.03 | 0.03 | 84 | 1017.6 |
| 20260906013523 | 20 | 51 | 1.6 | 6.4 | 0.00 | 0.03 | 0.03 | 83 | 1017.5 |
| 20260906013254 | 20 | 51 | 1.6 | 4.8 | 0.00 | 0.03 | 0.03 | 84 | 1017.4 |
| 20260906012522 | 21 | 50 | 1.6 | 4.8 | 0.00 | 0.03 | 0.03 | 84 | 1017.4 |
| 20260906012021 | 21 | 50 | 3.2 | 6.4 | 0.00 | 0.03 | 0.03 | 84 | 1017.4 |
| 20260906011522 | 21 | 53 | 1.6 | 6.4 | 0.00 | 0.03 | 0.03 | 83 | 1017.4 |
| 20260906011017 | 21 | 37 | 0.0 | 4.8 | 0.00 | 0.03 | 0.03 | 83 | 1017.4 |
| 20260906010519 | 21 | 63 | 1.6 | 4.8 | 0.00 | 0.03 | 0.03 | 83 | 1017.4 |
| 20260906010250 | 21 | 63 | 1.6 | 4.8 | 0.00 | 0.03 | 0.03 | 83 | 1017.3 |
| 20260906005518 | 21 | 63 | 1.6 | 3.2 | 0.00 | 0.03 | 0.03 | 82 | 1017.2 |
| 20260906005249 | 21 | 63 | 1.6 | 4.8 | 0.00 | 0.03 | 0.03 | 82 | 1017.1 |
| 20260906004517 | 21 | 63 | 1.6 | 4.8 | 0.00 | 0.03 | 0.03 | 82 | 1017.1 |
| 20260906004251 | 21 | 64 | 3.2 | 6.4 | 0.00 | 0.03 | 0.03 | 82 | 1017.1 |
| 20260906003751 | 21 | 64 | 3.2 | 8.0 | 0.00 | 0.03 | 0.03 | 81 | 1017.0 |
| 20260906003018 | 22 | 62 | 3.2 | 8.0 | 0.00 | 0.03 | 0.03 | 81 | 1017.0 |
| 20260906002519 | 22 | 68 | 3.2 | 6.4 | 0.00 | 0.03 | 0.03 | 81 | 1017.0 |
| 20260906002019 | 22 | 67 | 3.2 | 6.4 | 0.00 | 0.03 | 0.03 | 81 | 1017.0 |
| 20260906001513 | 22 | 46 | 1.6 | 6.4 | 0.00 | 0.03 | 0.03 | 81 | 1017.0 |
| 20260906001013 | 22 | 46 | 1.6 | 8.0 | 0.00 | 0.03 | 0.03 | 80 | 1017.1 |
| 20260906000514 | 22 | 42 | 3.2 | 8.0 | 0.00 | 0.03 | 0.03 | 79 | 1017.1 |
| 20260906000013 | 22 | 47 | 3.2 | 8.0 | 0.00 | 0.03 | 0.03 | 79 | 1017.0 |
| 20260905235515 | 23 | 24 | 4.8 | 11.3 | 0.00 | 0.03 | 0.03 | 79 | 1017.0 |
| 20260905235245 | 23 | 58 | 4.8 | 11.3 | 0.00 | 0.03 | 0.03 | 79 | 1017.0 |
| 20260905234514 | 23 | 355 | 3.2 | 11.3 | 0.00 | 0.03 | 0.03 | 78 | 1017.0 |
| 20260905234012 | 23 | 32 | 3.2 | 6.4 | 0.00 | 0.03 | 0.03 | 78 | 1016.9 |
| 20260905233512 | 23 | 50 | 3.2 | 16.1 | 0.00 | 0.03 | 0.03 | 78 | 1016.9 |
| 20260905233007 | 23 | 18 | 4.8 | 16.1 | 0.00 | 0.03 | 0.03 | 77 | 1017.0 |
| 20260905232508 | 23 | 74 | 4.8 | 14.5 | 0.00 | 0.03 | 0.03 | 77 | 1017.0 |
| 20260905232008 | 23 | 40 | 6.4 | 14.5 | 0.00 | 0.03 | 0.03 | 77 | 1017.2 |
| 20260905231508 | 23 | 15 | 6.4 | 14.5 | 0.00 | 0.03 | 0.03 | 76 | 1017.2 |
| 20260905231007 | 23 | 56 | 8.0 | 14.5 | 0.00 | 0.03 | 0.03 | 76 | 1017.2 |
| 20260905230508 | 23 | 11 | 8.0 | 14.5 | 0.00 | 0.03 | 0.03 | 76 | 1017.1 |
| 20260905230007 | 23 | 23 | 6.4 | 14.5 | 0.00 | 0.03 | 0.03 | 77 | 1017.2 |
| 20260905225501 | 23 | 35 | 8.0 | 22.5 | 0.00 | 0.03 | 0.03 | 77 | 1017.1 |
| 20260905225002 | 23 | 27 | 8.0 | 22.5 | 0.00 | 0.03 | 0.03 | 77 | 1017.0 |
| 20260905224502 | 23 | 30 | 4.8 | 14.5 | 0.00 | 0.03 | 0.03 | 77 | 1017.0 |
| 20260905224002 | 23 | 355 | 4.8 | 12.9 | 0.00 | 0.03 | 0.03 | 77 | 1017.0 |
| 20260905223503 | 23 | 106 | 4.8 | 14.5 | 0.00 | 0.03 | 0.03 | 77 | 1016.8 |
| 20260905223002 | 23 | 5 | 6.4 | 16.1 | 0.00 | 0.03 | 0.03 | 78 | 1016.8 |
| 20260905222504 | 23 | 0 | 8.0 | 16.1 | 0.00 | 0.03 | 0.03 | 78 | 1016.8 |
| 20260905221956 | 23 | 55 | 6.4 | 16.1 | 0.00 | 0.03 | 0.03 | 78 | 1016.8 |
| 20260905221453 | 23 | 30 | 6.4 | 12.9 | 0.00 | 0.03 | 0.03 | 78 | 1016.8 |
| 20260905220954 | 23 | 81 | 6.4 | 19.3 | 0.00 | 0.03 | 0.03 | 78 | 1016.8 |
| 20260905220454 | 23 | 84 | 6.4 | 19.3 | 0.00 | 0.03 | 0.03 | 78 | 1016.9 |
| 20260905215954 | 23 | 38 | 6.4 | 14.5 | 0.00 | 0.03 | 0.03 | 79 | 1016.9 |
| 20260905215454 | 23 | 50 | 8.0 | 16.1 | 0.00 | 0.03 | 0.03 | 80 | 1016.9 |
| 20260905214951 | 23 | 0 | 6.4 | 16.1 | 0.00 | 0.03 | 0.03 | 80 | 1016.9 |
| 20260905214455 | 23 | 65 | 4.8 | 12.9 | 0.00 | 0.03 | 0.03 | 82 | 1017.0 |
| 20260905214450 | 23 | 77 | 4.8 | 14.5 | 0.00 | 0.03 | 0.03 | 82 | 1017.0 |
| 20260905213447 | 23 | 61 | 4.8 | 12.9 | 0.00 | 0.03 | 0.03 | 82 | 1017.0 |
| 20260905212948 | 23 | 5 | 4.8 | 14.5 | 0.00 | 0.03 | 0.03 | 83 | 1017.1 |
| 20260905212447 | 23 | 32 | 4.8 | 14.5 | 0.00 | 0.03 | 0.03 | 83 | 1017.0 |
| 20260905212216 | 23 | 68 | 3.2 | 12.9 | 0.00 | 0.03 | 0.03 | 83 | 1017.1 |
| 20260905211446 | 23 | 80 | 3.2 | 8.0 | 0.00 | 0.03 | 0.03 | 84 | 1017.1 |
| 20260905210943 | 23 | 40 | 4.8 | 11.3 | 0.00 | 0.03 | 0.03 | 84 | 1017.2 |
| 20260905210443 | 23 | 17 | 4.8 | 11.3 | 0.00 | 0.03 | 0.03 | 84 | 1017.2 |
| 20260905205941 | 23 | 53 | 4.8 | 12.9 | 0.00 | 0.03 | 0.03 | 84 | 1017.1 |
| 20260905205440 | 23 | 27 | 4.8 | 12.9 | 0.00 | 0.03 | 0.03 | 83 | 1017.1 |
| 20260905204939 | 23 | 79 | 4.8 | 12.9 | 0.00 | 0.03 | 0.03 | 83 | 1017.0 |
| 20260905204435 | 23 | 37 | 4.8 | 12.9 | 0.00 | 0.03 | 0.03 | 83 | 1017.0 |
| 20260905203933 | 23 | 38 | 3.2 | 11.3 | 0.00 | 0.03 | 0.03 | 84 | 1016.9 |
| 20260905203431 | 23 | 60 | 3.2 | 9.7 | 0.00 | 0.03 | 0.03 | 84 | 1016.9 |
| 20260905202927 | 23 | 53 | 4.8 | 9.7 | 0.00 | 0.03 | 0.03 | 84 | 1016.9 |
| 20260905202428 | 23 | 37 | 6.4 | 14.5 | 0.00 | 0.03 | 0.03 | 84 | 1016.9 |
| 20260905201921 | 23 | 35 | 6.4 | 14.5 | 0.00 | 0.03 | 0.03 | 84 | 1016.9 |
| 20260905201422 | 23 | 0 | 4.8 | 12.9 | 0.00 | 0.03 | 0.03 | 84 | 1016.9 |
| 20260905200921 | 23 | 66 | 4.8 | 12.9 | 0.00 | 0.03 | 0.03 | 85 | 1016.9 |
| 20260905200421 | 23 | 22 | 3.2 | 11.3 | 0.00 | 0.03 | 0.03 | 85 | 1016.9 |
| 20260905195922 | 23 | 72 | 3.2 | 9.7 | 0.00 | 0.03 | 0.03 | 85 | 1017.0 |
| 20260905195421 | 23 | 26 | 4.8 | 9.7 | 0.00 | 0.03 | 0.03 | 85 | 1017.0 |
| 20260905194915 | 23 | 28 | 4.8 | 9.7 | 0.00 | 0.03 | 0.03 | 85 | 1017.0 |
| 20260905194415 | 23 | 14 | 4.8 | 12.9 | 0.00 | 0.03 | 0.03 | 85 | 1017.0 |
| 20260905193915 | 23 | 19 | 6.4 | 14.5 | 0.00 | 0.03 | 0.03 | 84 | 1017.0 |
| 20260905193646 | 23 | 50 | 6.4 | 14.5 | 0.00 | 0.03 | 0.03 | 85 | 1017.0 |
| 20260905192915 | 23 | 28 | 4.8 | 12.9 | 0.00 | 0.03 | 0.03 | 86 | 1017.1 |
| 20260905192417 | 23 | 33 | 3.2 | 9.7 | 0.00 | 0.03 | 0.03 | 86 | 1017.1 |
| 20260905191911 | 23 | 101 | 4.8 | 9.7 | 0.00 | 0.03 | 0.03 | 87 | 1017.0 |
| 20260905191410 | 23 | 40 | 4.8 | 9.7 | 0.00 | 0.03 | 0.03 | 87 | 1017.0 |
| 20260905190906 | 23 | 351 | 4.8 | 9.7 | 0.00 | 0.03 | 0.03 | 88 | 1017.1 |
| 20260905190403 | 22 | 86 | 4.8 | 11.3 | 0.00 | 0.03 | 0.03 | 88 | 1017.1 |
| 20260905190135 | 22 | 47 | 4.8 | 11.3 | 0.00 | 0.03 | 0.03 | 88 | 1017.1 |
| 20260905185359 | 22 | 76 | 3.2 | 11.3 | 0.00 | 0.03 | 0.03 | 88 | 1017.0 |
| 20260905184900 | 22 | 28 | 4.8 | 12.9 | 0.00 | 0.03 | 0.03 | 88 | 1017.2 |
| 20260905184358 | 22 | 52 | 6.4 | 12.9 | 0.00 | 0.03 | 0.03 | 88 | 1017.2 |
| 20260905183858 | 22 | 34 | 6.4 | 14.5 | 0.00 | 0.03 | 0.03 | 87 | 1017.2 |
| 20260905183357 | 22 | 12 | 6.4 | 14.5 | 0.00 | 0.03 | 0.03 | 88 | 1017.3 |
| 20260905182858 | 22 | 34 | 4.8 | 12.9 | 0.00 | 0.03 | 0.03 | 87 | 1017.3 |
| 20260905182354 | 22 | 46 | 4.8 | 12.9 | 0.00 | 0.03 | 0.03 | 87 | 1017.3 |
| 20260905181853 | 22 | 51 | 6.4 | 12.9 | 0.00 | 0.03 | 0.03 | 88 | 1017.2 |
| 20260905181354 | 23 | 98 | 8.0 | 12.9 | 0.00 | 0.03 | 0.03 | 87 | 1017.1 |
| 20260905180854 | 23 | 100 | 8.0 | 14.5 | 0.00 | 0.03 | 0.03 | 86 | 1017.1 |
| 20260905180351 | 23 | 84 | 6.4 | 14.5 | 0.00 | 0.03 | 0.03 | 87 | 1017.1 |
| 20260905175854 | 23 | 74 | 6.4 | 14.5 | 0.00 | 0.03 | 0.03 | 87 | 1017.0 |
| 20260905175346 | 23 | 49 | 6.4 | 14.5 | 0.00 | 0.03 | 0.03 | 87 | 1017.1 |
| 20260905174845 | 23 | 36 | 6.4 | 14.5 | 0.00 | 0.03 | 0.03 | 88 | 1017.1 |
| 20260905174346 | 22 | 64 | 8.0 | 14.5 | 0.00 | 0.03 | 0.03 | 87 | 1017.1 |
| 20260905173845 | 22 | 99 | 6.4 | 14.5 | 0.00 | 0.03 | 0.03 | 87 | 1017.1 |
| 20260905173345 | 22 | 90 | 6.4 | 14.5 | 0.00 | 0.03 | 0.03 | 88 | 1017.1 |
| 20260905172846 | 22 | 47 | 6.4 | 14.5 | 0.00 | 0.03 | 0.03 | 88 | 1017.1 |
| 20260905172612 | 22 | 69 | 8.0 | 16.1 | 0.00 | 0.03 | 0.03 | 88 | 1017.2 |
| 20260905171839 | 22 | 40 | 6.4 | 16.1 | 0.00 | 0.03 | 0.03 | 88 | 1017.2 |
| 20260905171339 | 22 | 61 | 6.4 | 12.9 | 0.00 | 0.03 | 0.03 | 89 | 1017.2 |
| 20260905170838 | 22 | 72 | 6.4 | 14.5 | 0.00 | 0.03 | 0.03 | 89 | 1017.2 |
| 20260905170337 | 22 | 63 | 4.8 | 14.5 | 0.00 | 0.03 | 0.03 | 89 | 1017.2 |
| 20260905165838 | 22 | 46 | 3.2 | 12.9 | 0.00 | 0.03 | 0.03 | 90 | 1017.4 |